Regional Weather Roundup
Issued by NWS

Home | Current Version | Previous Version | Text Only | Print | Product List | Glossary On
Versions: 1 2 3 4 5 6 7 8 9 10 11 12 13 14 15 16 17 18 19 20 21 22 23 24 25 26 27 28 29 30 31 32 33 34 35 36 37 38 39 40 41 42 43 44 45 46 47 48 49 50
000
ASUS45 KPSR 011910
RWRAZ

ARIZONA REGIONAL HOURLY WEATHER ROUNDUP
NATIONAL WEATHER SERVICE PHOENIX AZ
1200 PM MST SUN FEB 01 2015

NOTE: FAIR INDICATES FEW OR NO CLOUDS BELOW 12,000 FEET WITH NO
SIGNIFICANT WEATHER AND/OR OBSTRUCTIONS TO VISIBILITY.

AZZ001>003-036-012000-
NORTHWEST ARIZONA

CITY           SKY/WX    TMP DP  RH WIND       PRES   REMARKS
BULLHEAD CITY  SUNNY     66  30  26 N21G28    30.14F
KINGMAN        SUNNY     57  35  43 NE6       30.18F
$$

AZZ004>008-015-016-018-012000-
NORTH CENTRAL ARIZONA

CITY           SKY/WX    TMP DP  RH WIND       PRES   REMARKS
GRAND CANYON   SUNNY     49   5  16 CALM      30.22S
PRESCOTT       SUNNY     51  34  52 CALM      30.19F
FLAGSTAFF      SUNNY     46  17  31 E12G18    30.21S
PAYSON         SUNNY     54  30  40 NE12G17   30.18F
$$

AZZ009>014-017-012000-
NORTHEAST ARIZONA

CITY           SKY/WX    TMP DP  RH WIND       PRES   REMARKS
WINSLOW        SUNNY     46  38  73 NW6       30.21F
SAINT JOHNS    MOSUNNY   43  32  65 VRB5      30.19F
WINDOW ROCK    SUNNY     44  23  43 NW3       30.18F
SHOW LOW       SUNNY     39  30  70 N7        30.22F WCI  34
$$

AZZ023-012000-
GREATER PHOENIX AREA

CITY           SKY/WX    TMP DP  RH WIND       PRES   REMARKS
PHOENIX        CLOUDY    56  53  90 W5        30.11F FOG
BUCKEYE          N/A     54  54 100 CALM      30.13F
GLENDALE       PTSUNNY   54  54 100 CALM      30.14S FOG
LUKE AFB       SUNNY     56  55  95 CALM      30.11F
DEER VALLEY    SUNNY     58  52  80 SW5       30.11S
SCOTTSDALE     SUNNY     61  51  70 SW6       30.12F
MESA-FALCON      N/A     61  48  63 VRB6      30.10F
MESA-GATEWAY   PTSUNNY   52  52 100 CALM      30.14S FOG
CHANDLER       MOSUNNY   54  54 100 VRB6      30.12F FOG
$$

AZZ027-028-012000-
SOUTHWEST MARICOPA COUNTY AND PINAL COUNTY

CITY           SKY/WX    TMP DP  RH WIND       PRES   REMARKS
CASA GRANDE    CLOUDY    54  50  87 CALM      30.13F
GILA BEND      CLOUDY    56  56  99 N6        30.13S FOG
$$

AZZ503-504-507>509-012000-
SOUTHEAST ARIZONA

CITY           SKY/WX    TMP DP  RH WIND       PRES   REMARKS
TUCSON         CLOUDY    53  47  79 CALM      30.14F
DAVIS-MONTHAN  CLOUDY    50  50 100 NE3       30.12F
RYAN FIELD       N/A     54  54 100 CALM      30.14
NOGALES        MOSUNNY   59  40  49 NW6       30.10F
SIERRA VISTA   PTSUNNY   52  39  61 CALM      30.13S
DOUGLAS        SUNNY     54  41  61 CALM      30.12F
SAFFORD        CLOUDY    51  46  83 W7        30.13S
$$

AZZ020-021-025-026-031-012000-
SOUTHWEST ARIZONA

CITY           SKY/WX    TMP DP  RH WIND       PRES   REMARKS
YUMA           SUNNY     70  45  40 NE8       30.11F
$$

CAZ031-033-041-043-047-048-061-012000-
SOUTHERN CALIFORNIA

CITY           SKY/WX    TMP DP  RH WIND       PRES   REMARKS
DOWNTOWN L.A.  SUNNY     69  48  47 CALM      30.12S
L.A. AIRPORT   MOSUNNY   66  52  60 CALM      30.12S
SAN DIEGO      MOSUNNY   67  46  47 CALM      30.11F
BURBANK        SUNNY     67  39  35 CALM      30.12S
ONTARIO        MOSUNNY   68  40  35 CALM      30.13R
RIVERSIDE      SUNNY     68  44  42 W5        30.12S
PALM SPRINGS   SUNNY     76  34  21 VRB6      30.12S
EL CENTRO NAS  SUNNY     72  41  32 VRB3      30.11F
IMPERIAL       SUNNY     72  38  29 VRB5      30.11F
BLYTHE         SUNNY     67  44  43 E7        30.13F
NEEDLES        SUNNY     67  33  28 N15       30.14F
$$

NVZ020-UTZ003-012000-
SOUTHERN NEVADA-UTAH

CITY           SKY/WX    TMP DP  RH WIND       PRES   REMARKS
LAS VEGAS      MOSUNNY   59  27  29 S6        30.16F
SALT LAKE CITY MOSUNNY   44  28  53 S7        30.23F
$$

NMZ009-TXZ055-012000-
NEW MEXICO-WEST TEXAS

CITY           SKY/WX    TMP DP  RH WIND       PRES   REMARKS
ALBUQUERQUE    MOSUNNY   45  31  58 NW7       30.15F
EL PASO        MOSUNNY   55  41  59 N10       30.09F
$$


........................KEY........................
SKY/WX - SKY CONDITION/WEATHER
TMP    - TEMPERATURE IN FAHRENHEIT
DP     - DEW POINT IN FAHRENHEIT
RH     - RELATIVE HUMIDITY IN PERCENT
WIND   - DIRECTION AND SPEED IN MILES PER HOUR (MPH)
VRB    - VARIABLE WIND DIRECTION
PRES   - MEAN SEA LEVEL PRESSURE IN INCHES OF MERCURY
         F - FALLING PRESSURE   R - RISING PRESSURE
         S - STEADY PRESSURE
VSB    - VISIBILITY IN MILES
HX     - HEAT INDEX IN FAHRENHEIT
WCI    - WIND CHILL INDEX IN FAHRENHEIT
TC     - TEMPERATURE IN CELSIUS WHICH IS ALSO KNOWN AS
         TEMPERATURE IN CENTIGRADE
AFB    - AIR FORCE BASE
         LUKE AFB IS LUKE AIR FORCE BASE
         DAVIS-MONTHAN IS DAVIS-MONTHAN AIR FORCE BASE
NAS    - NAVAL AIR STATION
         EL CENTRO NAS IS EL CENTRO NAVAL AIR STATION
N/A    - NOT AVAILABLE


USA.gov is the U.S. government's official web portal to all federal, state and local government web resources and services.